Flag for China

Past Weather in Wuhan, Hubei, China — December 2019

Now
72 °F

Sunny.


Feels Like: 77 °F
Forecast: 67 / 57 °F
Wind: 6 mph from Southeast

Location: Wuhan Airport
Current Time: Oct 23, 2020 at 5:56:16 pm
Latest Report: Oct 23, 2020 at 5:00 pm
Visibility: 10 mi
Pressure30.09 "Hg
Humidity: 36%
Dew Point: 43 °F
Location of WuhanLocation

December 2019 Weather in Wuhan — Graph

°F

High & Low Weather Summary for December 2019

 TemperatureHumidityPressure
High68 °F (Dec 11, 2:00 pm)100% (Dec 2, 5:00 am)30.72 "Hg (Dec 2, 5:00 am)
Low32 °F (Dec 3, 7:00 am)14% (Dec 11, 2:00 pm)30.01 "Hg (Dec 15, 3:00 pm)
Average46 °F71%30.29 "Hg
* Reported Dec 1 12:00 am — Dec 31 11:00 pm, Wuhan. Weather by CustomWeather, © 2020

Note: Actual official high and low records may vary slightly from our data, if they occured in-between our weather recording intervals... More about our weather records

Wuhan Weather History for December 1, 2019

Scroll right to see more
 ConditionsComfort  
Time TempWeatherWind HumidityBarometerVisibility
12:00 am
Sun, Dec 1
41 °FFog.6 mph87%30.36 "Hg2 mi
1:00 am41 °FFog.6 mph87%30.36 "Hg2 mi
2:00 am41 °FFog.6 mph87%30.36 "Hg2 mi
3:00 am41 °FFog.6 mph87%30.36 "Hg2 mi
4:00 am39 °FFog.6 mph93%30.36 "Hg2 mi
5:00 am39 °FFog.6 mph93%30.36 "Hg2 mi
6:00 am39 °FFog.3 mph93%30.36 "Hg2 mi
7:00 am41 °FFog.3 mph87%30.39 "Hg2 mi
8:00 am41 °FFog.3 mph87%30.39 "Hg1 mi
9:00 am43 °FFog.3 mph81%30.42 "Hg1 mi
10:00 am45 °FFog.6 mph76%30.45 "Hg1 mi
11:00 am43 °FFog.6 mph81%30.45 "Hg1 mi
12:00 pm45 °FFog.6 mph81%30.42 "Hg1 mi
1:00 pm46 °FFog.6 mph71%30.39 "Hg1 mi
2:00 pm48 °FPartly sunny.8 mph66%30.36 "Hg3 mi
3:00 pm48 °FHaze.6 mph62%30.36 "Hg3 mi
4:00 pm48 °FClear.6 mph62%30.36 "Hg4 mi
5:00 pm48 °FClear.1 mph62%30.39 "Hg4 mi
6:00 pm46 °FHaze.3 mph66%30.39 "Hg3 mi
7:00 pm45 °FHaze.3 mph71%30.42 "Hg3 mi
8:00 pm45 °FHaze.3 mph71%30.42 "Hg3 mi
9:00 pm39 °FFog.1 mph87%30.45 "Hg3 mi
10:00 pm41 °FFog.1 mph87%30.45 "Hg3 mi
11:00 pm39 °FFog.3 mph93%30.45 "Hg2 mi
Weather by CustomWeather, © 2020

See weather overview